Stations météo

réclame
Mon MeteoGroup
Tain Range, Grande-Bretagne (3062): Température de l'air & dewpoint: 24.10.2020 22:00:00 - 30.10.2020 22:00:00 (GMT)Tain Range, Grande-Bretagne (3062): Température de l'air -20cm & Température de l'air -100cm: 24.10.2020 22:00:00 - 30.10.2020 22:00:00 (GMT)Tain Range, Grande-Bretagne (3062): Vitesse du vent & gusts: 24.10.2020 22:00:00 - 30.10.2020 22:00:00 (GMT)Tain Range, Grande-Bretagne (3062): Direction du vent: 24.10.2020 22:00:00 - 30.10.2020 22:00:00 (GMT)Tain Range, Grande-Bretagne (3062): reduced air pressure: 24.10.2020 22:00:00 - 30.10.2020 22:00:00 (GMT)Tain Range, Grande-Bretagne (3062): visibility: 24.10.2020 22:00:00 - 30.10.2020 22:00:00 (GMT)Tain Range, Grande-Bretagne (3062): Quantités de précipitations: 24.10.2020 22:00:00 - 30.10.2020 22:00:00 (GMT)
Date & Time tt [°C] td [°C] tt -20cm [°C] tt -100cm [°C] ff [km/h] ff [knt] fx [km/h] fx [knt] dd ppp [hPa] vv [km] rr [mm]
30.10.2020 22:00:00 4,6 3,5 - - 11 6 - - S 1011,5 29 0,0
30.10.2020 21:00:00 5,1 3,1 - - 5 3 - - SE 1011,7 25 0,0
30.10.2020 20:00:00 5,6 3,9 - - 4 2 - - S 1011,4 40 0,0
30.10.2020 19:00:00 5,4 3,1 - - 9 5 - - S 1011,1 50 0,0
30.10.2020 18:00:00 7,6 3,8 - - 11 6 - - S 1010,4 50 0,0
30.10.2020 17:00:00 8,2 4,1 - - 18 10 - - SSW 1009,1 40 0,0
30.10.2020 16:00:00 8,6 3,8 - - 15 8 - - SW 1008,6 35 0,0
30.10.2020 15:00:00 9,6 4,4 - - 21 11 - - SW 1007,6 35 0,0
30.10.2020 14:00:00 9,9 3,4 - - 26 14 - - SW 1006,6 50 0,0
30.10.2020 13:00:00 10,4 3,1 - - 26 14 - - W 1006,1 50 0,0
30.10.2020 12:00:00 10,4 4,0 - - 24 13 - - W 1004,9 50 0,2
30.10.2020 11:00:00 10,2 4,8 - - 22 12 - - SW 1003,5 30 0,0
30.10.2020 10:00:00 9,2 5,4 - - 22 12 - - W 1003,3 11 0,0
30.10.2020 09:00:00 8,4 5,5 8,7 9,2 21 11 - - SW 1001,9 40 0,0
30.10.2020 08:00:00 8,3 6,9 - - 13 7 - - SW 1000,9 45 0,0
30.10.2020 07:00:00 8,1 6,8 - - 8 4 - - NW 999,2 50 0,0
30.10.2020 06:00:00 10,2 8,4 - - 16 9 - - WNW 997,5 50 0,0
30.10.2020 05:00:00 11,1 9,4 - - 24 13 - - WNW 995,6 40 0,0
30.10.2020 04:00:00 11,9 10,9 - - 26 14 - - SW 993,0 40 0,0
30.10.2020 03:00:00 11,5 11,3 - - 15 8 - - SW 991,3 50 0,0
30.10.2020 02:00:00 10,9 10,8 - - 5 3 - - NE 991,0 50 0,2
30.10.2020 01:00:00 8,9 7,8 - - 5 3 - - WNW 990,6 50 0,0
30.10.2020 00:00:00 8,3 7,7 - - 21 11 - - SSW 990,0 50 0,0
29.10.2020 23:00:00 9,8 9,0 - - 16 9 - - S 990,1 35 0,0
29.10.2020 22:00:00 10,1 9,1 - - 5 3 - - E 990,8 50 0,0
29.10.2020 21:00:00 10,0 8,9 - - 16 9 - - SSE 991,4 50 0,0
29.10.2020 20:00:00 9,0 8,3 - - 9 5 - - SSE 991,9 50 0,0
29.10.2020 19:00:00 8,7 8,1 - - 15 8 - - ESE 992,6 50 0,4
29.10.2020 18:00:00 8,5 7,8 - - 21 11 - - SE 993,5 13 1,0
29.10.2020 17:00:00 8,4 7,5 - - 18 10 - - SE 994,3 18 1,6
29.10.2020 16:00:00 8,8 7,5 - - 18 10 - - SE 995,4 14 0,8
29.10.2020 15:00:00 8,7 6,8 - - 13 7 - - ESE 996,2 20 0,2
29.10.2020 14:00:00 9,0 6,1 - - 16 9 - - SSE 997,3 25 0,0
29.10.2020 13:00:00 9,4 5,1 - - 21 11 - - SSE 998,2 30 0,0
29.10.2020 12:00:00 9,2 5,4 - - 13 7 - - SSE 998,8 26 0,0
29.10.2020 11:00:00 8,5 4,9 - - 15 8 - - S 999,0 27 0,0
29.10.2020 10:00:00 8,4 5,8 - - 9 5 - - S 999,5 29 0,0
29.10.2020 09:00:00 6,2 4,7 8,7 9,4 9 5 - - SSW 999,3 50 0,0
29.10.2020 08:00:00 4,0 3,4 - - 16 9 - - SSW 998,9 35 0,0
29.10.2020 07:00:00 4,5 3,7 - - 13 7 - - SSW 998,5 35 0,0
29.10.2020 06:00:00 5,1 4,1 - - 13 7 - - SW 997,9 45 0,0
29.10.2020 05:00:00 6,2 4,8 - - 21 11 - - SW 996,8 45 0,0
29.10.2020 04:00:00 6,0 5,1 - - 13 7 - - SW 996,1 50 0,0
29.10.2020 03:00:00 6,2 5,2 - - 18 10 - - SW 995,3 45 0,0
29.10.2020 02:00:00 6,6 5,4 - - 18 10 - - SW 994,7 50 0,0
29.10.2020 01:00:00 5,0 4,0 - - 13 7 - - SW 993,7 50 0,0
29.10.2020 00:00:00 4,5 3,6 - - 16 9 - - SSW 992,9 40 0,0
28.10.2020 23:00:00 3,1 2,4 - - 16 9 - - SSW 992,0 40 0,0
28.10.2020 22:00:00 5,1 4,4 - - 16 9 - - SSW 991,2 50 0,0
28.10.2020 21:00:00 4,7 3,6 - - 9 5 - - SSW 990,3 50 0,0
28.10.2020 20:00:00 5,3 4,1 - - 8 4 - - SSW 989,8 40 0,0
28.10.2020 19:00:00 6,2 4,5 - - 9 5 - - WSW 989,1 50 0,0
28.10.2020 18:00:00 7,8 5,7 - - 16 9 - - SW 988,3 50 0,0
28.10.2020 17:00:00 8,2 5,5 - - 16 9 - - SW 987,6 50 0,0
28.10.2020 16:00:00 8,8 6,4 - - 13 7 - - SSW 986,8 50 0,0
28.10.2020 15:00:00 8,9 6,4 - - 9 5 - - SSW 986,6 40 0,0
28.10.2020 14:00:00 9,2 6,4 - - 11 6 - - SW 986,2 50 0,0
28.10.2020 13:00:00 9,3 7,1 - - 11 6 - - SW 985,8 30 0,0
28.10.2020 12:00:00 8,9 6,6 - - 16 9 - - SW 985,6 45 0,0
28.10.2020 11:00:00 7,2 6,1 - - 5 3 - - S 985,5 40 0,0
28.10.2020 10:00:00 5,4 5,1 - - 5 3 - - ESE 985,1 40 0,0
28.10.2020 09:00:00 4,3 4,1 9,0 9,5 8 4 - - SW 984,6 45 0,0
28.10.2020 08:00:00 3,6 3,5 - - 4 2 - - W 984,0 40 0,0
28.10.2020 07:00:00 2,8 2,6 - - 5 3 - - SSW 983,7 27 0,0
28.10.2020 06:00:00 2,7 2,6 - - 11 6 - - SSW 983,6 24 0,0
28.10.2020 05:00:00 3,0 2,8 - - 15 8 - - SSW 983,3 30 0,0
28.10.2020 04:00:00 3,3 2,7 - - 8 4 - - SSW 983,2 30 0,0
28.10.2020 03:00:00 4,5 3,7 - - 11 6 - - SW 983,4 30 0,0
28.10.2020 02:00:00 5,2 4,3 - - 13 7 - - SW 983,5 30 0,0
28.10.2020 01:00:00 6,1 5,3 - - 16 9 - - SW 983,4 35 0,0
28.10.2020 00:00:00 5,8 5,1 - - 5 3 - - SSW 983,3 50 0,2
27.10.2020 23:00:00 6,5 5,8 - - 9 5 - - SSW 983,4 35 0,0
27.10.2020 22:00:00 6,4 5,6 - - 8 4 - - WSW 983,4 21 0,2
27.10.2020 21:00:00 7,0 6,3 - - 11 6 - - WNW 983,1 19 0,6
27.10.2020 20:00:00 7,7 7,2 - - 15 8 - - SW 982,9 18 0,4
27.10.2020 19:00:00 7,8 7,3 - - 5 3 - - SSE 982,6 50 0,6
27.10.2020 18:00:00 7,9 7,2 - - 9 5 - - SSE 982,7 25 0,4
27.10.2020 17:00:00 8,1 6,9 - - 8 4 - - SSE 982,8 18 0,6
27.10.2020 16:00:00 9,3 6,3 - - 11 6 - - SSE 982,9 30 0,0
27.10.2020 15:00:00 9,9 6,0 - - 15 8 - - ESE 983,4 50 0,0
27.10.2020 14:00:00 9,8 5,5 - - 18 10 - - ESE 984,2 50 0,0
27.10.2020 13:00:00 9,3 6,1 - - 13 7 - - SE 985,4 50 0,0
27.10.2020 12:00:00 8,9 6,0 - - 11 6 - - ESE 986,3 45 0,0
27.10.2020 11:00:00 8,8 6,3 - - 11 6 - - S 987,4 35 0,0
27.10.2020 10:00:00 7,9 7,0 - - 5 3 - - SSW 987,8 35 0,0
27.10.2020 09:00:00 4,2 4,2 9,2 9,7 2 1 - - SW 988,5 35 0,0
27.10.2020 08:00:00 1,8 1,8 - - 5 3 - - SW 988,9 2,9 0,0
27.10.2020 07:00:00 1,1 1,0 - - 8 4 - - SW 989,2 0,5 0,0
27.10.2020 06:00:00 1,9 1,6 - - 9 5 - - WSW 989,3 45 0,0
27.10.2020 05:00:00 4,4 4,2 - - 13 7 - - SW 989,7 50 0,0
27.10.2020 04:00:00 5,0 4,5 - - 5 3 - - SW 989,7 50 0,0
27.10.2020 03:00:00 4,7 4,4 - - 9 5 - - W 990,0 50 0,0
27.10.2020 02:00:00 6,4 5,2 - - 9 5 - - SW 990,4 45 0,0
27.10.2020 01:00:00 7,1 6,2 - - 13 7 - - W 990,4 40 0,0
27.10.2020 00:00:00 7,7 6,4 - - 13 7 - - WNW 990,6 50 0,0
26.10.2020 23:00:00 8,4 7,2 - - 16 9 - - WNW 990,5 50 0,0
26.10.2020 22:00:00 8,7 7,3 - - 18 10 - - WNW 990,4 50 0,0
26.10.2020 21:00:00 8,7 7,1 - - 22 12 - - WNW 990,1 50 0,0
26.10.2020 20:00:00 8,3 6,9 - - 11 6 - - WNW 989,8 35 0,0
26.10.2020 19:00:00 9,4 7,6 - - 16 9 - - WNW 989,3 12 0,0
26.10.2020 18:00:00 9,5 7,1 - - 18 10 - - NW 988,6 50 0,0
26.10.2020 17:00:00 10,0 7,4 - - 16 9 - - WNW 987,9 50 0,0
26.10.2020 16:00:00 10,3 7,7 - - 16 9 - - WNW 987,1 50 0,0
26.10.2020 15:00:00 11,1 7,5 - - 11 6 - - NNW 986,6 50 0,0
26.10.2020 14:00:00 11,7 8,1 - - 15 8 - - W 985,9 45 0,0
26.10.2020 13:00:00 10,5 7,0 - - 18 10 - - WNW 985,2 50 0,0
26.10.2020 12:00:00 9,4 7,4 - - 16 9 - - N 984,7 40 0,0
26.10.2020 11:00:00 9,8 7,8 - - 15 8 - - N 984,3 50 0,0
26.10.2020 10:00:00 9,9 7,9 - - 8 4 - - SW 983,2 45 0,0
26.10.2020 09:00:00 6,7 6,0 9,0 9,7 5 3 - - WSW 982,5 50 0,0
26.10.2020 08:00:00 7,2 6,0 - - 5 3 - - SSW 981,9 20 0,4
26.10.2020 07:00:00 6,1 4,7 - - 8 4 - - SSE 981,1 50 0,0
26.10.2020 06:00:00 6,9 4,9 - - 8 4 - - S 980,4 50 0,0
26.10.2020 05:00:00 7,4 4,9 - - 11 6 - - S 979,8 50 0,0
26.10.2020 04:00:00 8,7 5,2 - - 16 9 - - SSW 979,6 50 0,0
26.10.2020 03:00:00 8,8 5,6 - - 15 8 - - S 979,6 50 0,0
26.10.2020 02:00:00 8,9 5,5 - - 22 12 - - S 979,7 50 0,0
26.10.2020 01:00:00 9,0 5,5 - - 22 12 - - S 979,8 50 0,0
26.10.2020 00:00:00 8,8 5,3 - - 26 14 - - S 979,8 45 0,0
25.10.2020 23:00:00 8,7 5,5 - - 24 13 - - SSE 979,9 40 0,0
25.10.2020 22:00:00 9,1 5,6 - - 24 13 - - SSE 979,9 40 0,0
25.10.2020 21:00:00 8,9 5,2 - - 29 16 - - S 979,5 50 0,0
25.10.2020 20:00:00 8,8 4,9 - - 22 12 - - S 979,6 50 0,0
25.10.2020 19:00:00 8,8 5,4 - - 18 10 - - SSE 979,3 50 0,0
25.10.2020 18:00:00 8,8 5,0 - - 18 10 - - S 979,3 50 0,0
25.10.2020 17:00:00 8,8 5,1 - - 24 13 - - S 979,1 45 0,0
25.10.2020 16:00:00 9,1 5,5 - - 13 7 - - SSW 979,0 50 0,0
25.10.2020 15:00:00 9,6 5,3 - - 31 17 46 25 SSW 979,0 50 0,0
25.10.2020 14:00:00 10,0 5,0 - - 24 13 - - S 978,7 50 0,0
25.10.2020 13:00:00 9,5 4,3 - - 22 12 - - S 978,8 50 0,0
25.10.2020 12:00:00 9,6 4,9 - - 26 14 - - S 979,1 50 0,0
25.10.2020 11:00:00 10,3 5,3 - - 31 17 - - S 979,2 24 0,0
25.10.2020 10:00:00 9,7 4,9 - - 26 14 - - SSE 979,5 50 0,0
25.10.2020 09:00:00 8,0 4,5 9,2 9,9 26 14 - - SSE 979,6 40 0,0
25.10.2020 08:00:00 8,2 5,0 - - 21 11 - - SSE 979,4 40 0,0
25.10.2020 07:00:00 7,6 4,7 - - 18 10 - - SSE 979,3 50 0,0
25.10.2020 06:00:00 7,9 4,4 - - 18 10 - - SSE 979,6 50 0,0
25.10.2020 05:00:00 7,2 3,9 - - 18 10 - - SSE 979,5 50 0,0
25.10.2020 04:00:00 6,7 3,7 - - 16 9 - - S 979,8 50 0,0
25.10.2020 03:00:00 6,1 3,3 - - 16 9 - - SSE 979,9 50 0,2
25.10.2020 02:00:00 3,2 0,0 - - 11 6 - - S 980,4 45 0,0
25.10.2020 01:00:00 3,1 1,5 - - 5 3 - - S 980,8 45 0,0
25.10.2020 00:00:00 - - - - - - - - - - - -
24.10.2020 23:00:00 3,9 2,6 - - 13 7 - - S 981,3 40 0,0
24.10.2020 22:00:00 3,5 2,0 - - 13 7 - - SSE 981,6 30 0,0

tt = Température de l'air
td = dewpoint
tt -20cm = Température de l'air -20cm
tt -100cm = Température de l'air -100cm
ff = Vitesse du vent
fx = gusts
dd = Direction du vent
ppp = reduced air pressure
vv = visibility
rr = Quantités de précipitations

stations d'obs. à proximité